Simultaneous Nadir Overpasses (SNOs) Predictions

Prediction of SNOs between NOAA-19 and NPP Satellite Orbit:

Table of predicted SNOs for the next 14.0 days since TLE Epoch: 1/9/2016
Index Date (NOAA-19) Time (NOAA-19) Lat,Lon (NOAA-19) SZA (NOAA-19 ) Date (NPP) Time (NPP) Lat,Lon (NPP) SZA (NPP ) Distance(km) Time Diff (sec)
1 01/11/2016 18:21:48 -81.03, 31.35 73.53 01/11/2016 18:23:00 -81.02, 31.33 73.57 0.70 72
2 01/11/2016 19:12:46 81.03,-161.34 106.47 01/11/2016 19:13:45 81.02,-161.26 106.42 1.75 59
3 01/11/2016 20:03:50 -81.03, 5.95 73.55 01/11/2016 20:04:30 -81.03, 5.89 73.57 1.05 40
4 01/11/2016 20:54:48 81.03, 173.26 106.44 01/11/2016 20:55:15 81.02, 173.31 106.42 1.05 27
5 01/11/2016 21:45:52 -81.03, -19.45 73.58 01/11/2016 21:46:00 -81.03, -19.54 73.57 1.57 8
6 01/11/2016
